OCO 2

Last updated on Thu Oct 30 2025 00:03:36 GMT+0000 (Coordinated Universal Time)

1 40059U 14035A 25302.49399394 .00000855 00000+0 19994-3 0 9995 2 40059 98.2143 242.0386 0001766 73.5905 286.5488 14.57074532602457
UTC large
Height (km)
Speed (km/s)
/
Latitude / Longitude
Inclination (degrees)
Orbital Period (minutes)
Azimuth
Elevation
Range (km)
Doppler Factor

Next 0 passes for location: London (51.5072 / 0.1276)

Sorry there are no passes over London.